Flag for U.S.A. Weather past 2 weeks in Philadelphia, Pennsylvania, U.S.A.

Now
78 °F

Broken clouds.


Feels Like: 80 °F
Forecast: 67 / 83 °F
Wind: 3 mph from South

Location: Philadelphia International Airport

Current Time: Aug 21, 2014 at 10:13:05 AM

Latest Report: Aug 21, 2014 at 9:54 AM


Visibility: 10 mi

Pressure: 30.06 "Hg

Humidity: 69%

Dew point: 67 °F

Location of PhiladelphiaLocation

Historic Weather in Philadelphia — Graph

°F

Philadelphia temperature yesterday

Maximum temperature yesterday: 84 °F (at 2:54 PM)
Minimum temperature yesterday: 71 °F (at 5:54 AM)
Average temperature yesterday: 77 °F

Past Weeks' High & Low Weather Summary

 TemperatureHumidityPressure
High87 °F (Aug 10, 4:54 PM)90% (Aug 12, 7:54 PM)30.15 "Hg (Aug 12, 7:54 PM)
Low60 °F (Aug 15, 4:54 AM)30% (Aug 9, 4:54 PM)29.71 "Hg (Aug 13, 2:54 PM)
Average74 °F60%29.97 "Hg
* Reported Aug 6 8:54 AM — Aug 21 8:54 AM, Philadelphia, Weather by CustomWeather, © 2014

Note: Actual official high and low records may vary slightly from our data, if they occured in-between our weather recording intervals... More about our weather records

Advertising

Philadelphia weather history for previous 24 hours

 ConditionsComfort  
Time TempWeatherWind HumidityBarometerVisibility
8:54 AM
Aug 21
74 °FCloudy.No wind76%30.06 "Hg10 mi
7:54 AM72 °FPartly sunny.5 mph78%30.06 "Hg10 mi
6:54 AM69 °FPassing clouds.6 mph84%30.04 "Hg10 mi
5:54 AM69 °FPassing clouds.5 mph84%30.03 "Hg10 mi
4:54 AM69 °FPassing clouds.6 mph84%30.01 "Hg10 mi
3:54 AM70 °FPassing clouds.6 mph81%30.02 "Hg10 mi
2:54 AM71 °FOvercast.3 mph78%30.02 "Hg10 mi
1:54 AM72 °FPartly cloudy.3 mph76%30.03 "Hg10 mi
12:54 AM73 °FOvercast.6 mph71%30.04 "Hg10 mi
11:54 PM
Aug 20
73 °FMostly cloudy.5 mph71%30.04 "Hg10 mi
10:54 PM73 °FPartly cloudy.6 mph69%30.02 "Hg10 mi
9:54 PM74 °FPartly cloudy.6 mph64%30.00 "Hg10 mi
8:54 PM75 °FPartly cloudy.5 mph71%30.00 "Hg10 mi
7:54 PM78 °FBroken clouds.9 mph64%29.99 "Hg10 mi
6:54 PM81 °FMostly cloudy.13 mph60%29.99 "Hg10 mi
5:54 PM82 °FMostly cloudy.10 mph60%29.97 "Hg10 mi
4:54 PM84 °FCloudy.5 mph49%29.96 "Hg10 mi
3:54 PM83 °FBroken clouds.6 mph55%29.96 "Hg10 mi
2:54 PM84 °FPassing clouds.5 mph49%29.96 "Hg10 mi
1:54 PM83 °FScattered clouds.8 mph48%29.97 "Hg10 mi
12:54 PM83 °FScattered clouds.No wind50%29.99 "Hg10 mi
11:54 AM81 °FPartly sunny.3 mph49%30.01 "Hg10 mi
10:54 AM78 °FPartly sunny.3 mph56%30.01 "Hg10 mi
Weather by CustomWeather, © 2014

See weather overviewHow to use our weather pages